Fairbanks Eiels, AK

3:24 AM AKST on December 11, 2019 (GMT -0900)
Eielson Air Force Base

Weather History for PAEI - October, 2019

Change the Weather History Date:

Wednesday, October 30, 2019

  Actual Average Record
Temperature  
Mean Temperature 28 °F -  
Max Temperature 35 °F 18 °F 48 °F (1970)
Min Temperature 19 °F 4 °F -31 °F (1975)
Degree Days  
Heating Degree Days 36    
Moisture  
Dew Point 27 °F    
Average Humidity 86    
Maximum Humidity 93    
Minimum Humidity 77    
Precipitation  
Precipitation 0.02 in - - ()
Sea Level Pressure  
Sea Level Pressure 29.97 in    
Wind  
Wind Speed 3 mph (WSW)    
Max Wind Speed 14 mph    
Max Gust Speed 23 mph    
Visibility 8 miles    
Events Rain , Snow    
Averages and records for this station are not official NWS values.
T = Trace of Precipitation, MM = Missing Value Source: NWS Daily Summary

Daily Weather History Graph

Daily Weather History Graph

Search for Another Location

Airport or City:

Astronomy

Oct. 30, 2019 Rise Set
Actual Time 9:28 AM AKDT 5:34 PM AKDT
Civil Twilight 8:34 AM AKDT 6:28 PM AKDT
Nautical Twilight 7:36 AM AKDT 7:26 PM AKDT
Astronomical Twilight 6:40 AM AKDT 8:22 PM AKDT
Moon 1:28 PM AKDT (10/30) 6:39 PM AKDT (10/30)
Length of Visible Light 9h 54m
Length of Day
8h 06m
Waxing Crescent, 9% of the Moon is Illuminated
Oct 30
Waxing Crescent
Nov 4
First Quarter
Nov 12
Full
Nov 19
Last Quarter
Nov 26
New

Hourly Weather History & Observations

Time (AKDT) Temp. Windchill Dew Point Humidity Pressure Visibility Wind Dir Wind Speed Gust Speed Precip Events Conditions
12:56 AM 31.5 °F - 27.7 °F 86% 29.77 in 10.0 mi Calm Calm - N/A   Overcast
1:56 AM 30.9 °F - 27.9 °F 88% 29.78 in 10.0 mi Calm Calm - N/A   Overcast
2:56 AM 27.7 °F - 25.2 °F 90% 29.77 in 10.0 mi Calm Calm - N/A   Scattered Clouds
3:56 AM 28.8 °F - 26.2 °F 90% 29.79 in 10.0 mi Calm Calm - N/A   Scattered Clouds
4:56 AM 29.1 °F - 26.2 °F 89% 29.80 in 10.0 mi Calm Calm - N/A   Overcast
5:56 AM 28.9 °F - 26.1 °F 89% 29.80 in 10.0 mi Calm Calm - N/A   Overcast
6:56 AM 32.2 °F - 28.2 °F 85% 29.81 in 10.0 mi Calm Calm - N/A   Overcast
7:56 AM 30.4 °F - 27.3 °F 88% 29.83 in 10.0 mi Calm Calm - N/A   Overcast
8:56 AM 30.7 °F - 27.7 °F 88% 29.85 in 10.0 mi Calm Calm - N/A   Overcast
9:11 AM 30.2 °F - 28.4 °F 93% 29.85 in 10.0 mi Calm Calm - N/A   Overcast
9:26 AM 32.0 °F - 28.4 °F 87% 29.86 in 10.0 mi Calm Calm - N/A   Overcast
9:41 AM 32.0 °F 28.7 °F 28.4 °F 87% 29.87 in 10.0 mi SW 3.5 mph - N/A   Overcast
9:47 AM 32.0 °F - 28.4 °F 87% 29.87 in 10.0 mi Calm Calm - N/A Rain Light Freezing Rain
10:02 AM 32.0 °F - 28.4 °F 87% 29.87 in 10.0 mi Calm Calm - N/A   Overcast
10:23 AM 32.0 °F - 30.2 °F 93% 29.88 in 10.0 mi Calm Calm - N/A Rain Light Rain
10:33 AM 32.0 °F - 30.2 °F 93% 29.88 in 10.0 mi Calm Calm - N/A   Overcast
10:56 AM 32.5 °F - 29.7 °F 89% 29.90 in 10.0 mi Calm Calm - 0.00 in   Overcast
11:17 AM 35.6 °F 32.8 °F 32.0 °F 87% 29.91 in 10.0 mi South 3.5 mph - N/A   Overcast
11:21 AM 35.6 °F 30.7 °F 30.2 °F 81% 29.92 in 6.0 mi SW 5.8 mph - N/A   Light Ice Pellets
11:23 AM 35.6 °F 30.7 °F 30.2 °F 81% 29.92 in 6.0 mi SW 5.8 mph - N/A   Light Ice Pellets
11:36 AM 35.6 °F 29.2 °F 32.0 °F 87% 29.93 in 2.0 mi WSW 8.1 mph - N/A Snow Light Snow
11:51 AM 33.8 °F 27.0 °F 32.0 °F 93% 29.95 in 0.5 mi WSW 8.1 mph - N/A Snow Snow
11:56 AM 33.4 °F 26.6 °F 30.7 °F 90% 29.95 in 1.0 mi WSW 8.1 mph - 0.01 in Snow Light Snow
12:11 PM 33.8 °F 27.7 °F 30.2 °F 87% 29.97 in 1.0 mi West 6.9 mph - N/A Snow Light Snow
12:39 PM 33.8 °F 27.0 °F 30.2 °F 87% 29.99 in 2.5 mi WSW 8.1 mph - N/A Snow Light Snow
1:11 PM 32.0 °F 22.1 °F 28.4 °F 87% 30.02 in 2.5 mi West 13.8 mph 23.0 mph N/A Snow Light Snow
1:18 PM 32.0 °F 25.6 °F 28.4 °F 87% 30.02 in 5.0 mi Variable 6.9 mph - N/A Snow Light Snow
1:38 PM 32.0 °F 24.2 °F 26.6 °F 80% 30.03 in 10.0 mi West 9.2 mph - N/A   Mostly Cloudy
1:56 PM 31.3 °F 24.7 °F 25.9 °F 80% 30.04 in 10.0 mi WSW 6.9 mph - 0.01 in   Mostly Cloudy
2:11 PM 32.0 °F 24.2 °F 26.6 °F 80% 30.05 in 10.0 mi West 9.2 mph - N/A   Overcast
2:26 PM 30.2 °F 24.3 °F 26.6 °F 86% 30.06 in 10.0 mi WNW 5.8 mph - N/A   Overcast
2:56 PM 30.9 °F 23.5 °F 27.0 °F 85% 30.07 in 10.0 mi West 8.1 mph - N/A   Overcast
3:07 PM 30.2 °F 20.8 °F 26.6 °F 86% 30.09 in 10.0 mi West 11.5 mph - N/A Snow Light Snow
3:17 PM 30.2 °F 20.8 °F 26.6 °F 86% 30.09 in 10.0 mi West 11.5 mph - N/A   Mostly Cloudy
3:56 PM 29.1 °F 21.3 °F 24.8 °F 84% 30.10 in 10.0 mi West 8.1 mph - 0.00 in   Overcast
4:56 PM 28.0 °F 19.3 °F 23.2 °F 82% 30.12 in 10.0 mi West 9.2 mph - N/A   Mostly Cloudy
5:56 PM 26.8 °F 18.5 °F 20.8 °F 78% 30.15 in 10.0 mi West 8.1 mph - N/A   Mostly Cloudy
6:56 PM 26.8 °F 21.4 °F 20.5 °F 77% 30.17 in 10.0 mi WSW 4.6 mph - N/A   Mostly Cloudy
7:56 PM 25.9 °F - 19.6 °F 77% 30.20 in 10.0 mi Calm Calm - N/A   Mostly Cloudy
8:56 PM 25.2 °F - 20.1 °F 81% 30.22 in 10.0 mi Calm Calm - N/A   Mostly Cloudy
9:56 PM 24.6 °F - 19.4 °F 81% 30.24 in 10.0 mi Calm Calm - N/A   Mostly Cloudy
10:56 PM 22.6 °F 16.5 °F 18.5 °F 84% 30.26 in 10.0 mi South 4.6 mph - N/A   Mostly Cloudy
11:56 PM 19.2 °F 14.1 °F 15.4 °F 85% 30.23 in 10.0 mi South 3.5 mph - N/A   Clear